Tracking 17844 objects as of 26-August-2016
HD Live streaming from Space Station
objects crossing your sky now

IRIDIUM 33 DEB

Track IRIDIUM 33 DEB now!
10-day predictions


NORAD ID: 34150
Int'l Code: 1997-051ED
Perigee: 675.1 km
Apogee: 785.4 km
Inclination: 86.5 °
Period: 99.3 minutes
Semi major axis: 7101 km
RCS: 0.0227 m2 (small)
Launch date: September 14, 1997
Source: United States (US)
Launch site: TYURATAM MISSILE AND SPACE COMPLEX (TTMTR)

Note: This is SATELLITE DEBRIS
Your satellite tracking list
Your tracking list is empty





NASA's NSSDC Master Catalog

Two Line Element Set (TLE):
1 34150U 97051ED  16238.64337734  .00003222  00000-0  78207-3 0  9998
2 34150  86.4806  90.6777 0077666 192.3349 229.6496 14.50786841393430
Source of the keplerian elements: AFSPC

N2YO: 504